NWS Melbourne » East Central Florida Hourly Weather Roundup

MIARWRMLB 000
TTAA00 KMLB 240311
HOURLY WEATHER ROUNDUP AROUND FLORIDA
NATIONAL WEATHER SERVICE OFFICE MELBOURNE FL
1000 PM EST SUN NOV 23 2014
  
CITY           SKY/WX    TMP DP  RH WIND       PRES   REMARKS
MELBOURNE      MOCLDY    77  73  87 S8        29.95R                  
FORT PIERCE    MOCLDY    76  72  87 S8        29.96S                  
ORLANDO INTL   MOCLDY    74  73  97 S6        29.95R                  
DAYTONA BEACH  MOCLDY    74  72  93 S6        29.94R                  
VERO BEACH     MOCLDY    74  72  93 S8        29.96R                  
$$
...ELSEWHERE ACROSS CENTRAL FLORIDA...
  
CITY           SKY/WX    TMP DP  RH WIND       PRES   REMARKS
PATRICK AFB    MOCLDY    73  72  94 S7        29.96R                  
JFK SPACE CTR  MOCLDY    74  71  91 S7        29.95R                  
CAPE CANAVERAL MOCLDY    73  71  94 S8        29.95R                  
ORLANDO EXEC   PTCLDY    75  72  90 S8        29.95R                  
LEESBURG       PTCLDY    71  68  90 SW5       29.95R                  
SANFORD        PTCLDY    75  71  87 S6        29.94R                  
WINTER HAVEN   CLOUDY    74  70  87 SE3       29.96R                  
KISSIMMEE      CLOUDY    73  73 100 CALM      29.96R                  
OKEECHOBEE     MOCLDY   N/A N/A N/A SE7       29.96S                  
TAMPA          MOCLDY    71  68  90 CALM      29.95R                  
$$
...NORTHERN FLORIDA...
  
CITY           SKY/WX    TMP DP  RH WIND       PRES   REMARKS
DELAND         PTCLDY    73  72  94 S6        29.95R                  
NEW SMYRNA BCH MOCLDY    75  73  94 S9        29.95R                  
ST AUGUSTINE   CLOUDY    73  71  93 S5        29.92S                  
OCALA          MOCLDY    73  70  88 S10       29.93S                  
GAINESVILLE    CLOUDY    74  70  87 SW8       29.92R                  
JACKSONVILLE   CLOUDY    71  70  96 S9        29.89S                  
TALLAHASSEE    CLOUDY    65  62  90 SE6       29.88R                  
$$
...ALONG THE SOUTHEAST COAST TO THE KEYS...
  
CITY           SKY/WX    TMP DP  RH WIND       PRES   REMARKS
STUART         MOCLDY    73  72  94 SE6       29.97S                  
WEST PALM BCH  PTCLDY    80  74  81 S6        29.96S                  
MIAMI          MOCLDY    79  74  84 SE8       29.97F                  
KEY WEST       PTCLDY    80  80 100 SE10      29.94S                  
$$
...MARINE REPORTS...
  
STATION/POSITION TIME  TEMP    WIND        PRES    WAVE   SWELL
                       AIR SEA DIR/SP/G            HT/PER HT/PER/DIR
                 (UTC) (F)     (DEG/KT/KT) (MB)    (FT/S) (FT/S/D)
ST AUGUSTINE FP  0300   68     180/  9/ 11 1013.8R
20NM E CAPE CANA 0300   78 77  180/ 17/ 21 1014.1S   7/10   5/ 90/10
120 E NEW SMYRNA 0300   78 78  170/ 19/ 23 1015.3R   9/10   8/120/10
TRIDENT PIER     0300   71 69  160/  5/  7 1013.8R
SEBASTIAN INLET  0300   75     180/  7     1015.0S
4NM E PORT CANAV 0300      69                N/A     5/10   2/110/11
6NM NE FPR INLET 0200      73                N/A     5/10   2/ 80/11
SETTLEMENT PT GB 0300   79     140/ 11/ 13 1016.1S
$$
  
 


USA.gov is the U.S. government's official web portal to all federal, state and local government web resources and services.